Temperature
23 24 24 25 25 25 25 25 25 25 25 25 24 23 22 20 20 19 18 17 17 15 14 14 14 14 14 14 15 15 15 15 15 15 15 15 15 15 15 15 15 15 15 15
23 24 25 25 24 24 25 25 25 24 24 24 24 23 22 20 20 19 18 17 16 15 14 13 13 13 13 14 14 14 14 15 15 14 14 14 14 14 14 14 14 14 14 15
24 24 24 24 24 24 25 25 25 24 24 24 23 22 22 20 19 18 17 16 15 14 13 13 12 12 13 13 13 13 14 14 14 14 14 14 14 14 13 13 13 14 14 14
24 24 24 24 24 24 24 25 25 24 24 24 24 24 23 21 20 18 16 15 14 13 13 12 12 12 12 12 12 13 13 13 13 13 13 13 13 13 13 13 13 13 13 13
24 24 24 24 24 24 25 25 25 25 25 24 24 24 24 22 21 19 17 15 14 13 12 11 11 11 11 11 12 12 12 12 13 12 12 13 12 12 12 12 12 12 12 13
24 24 24 25 25 24 24 24 24 24 25 23 24 24 23 23 22 20 17 15 13 12 11 11 10 10 10 11 11 11 11 12 12 12 12 12 12 12 12 12 12 12 12 12
23 24 24 24 24 24 24 24 23 23 23 23 24 23 23 22 21 20 17 14 12 11 10 10 10 10 10 10 10 10 10 11 11 11 11 11 11 11 11 11 11 11 11 11
23 23 24 24 24 24 24 24 23 22 22 23 23 23 22 20 18 17 16 13 11 10 10 9 9 9 9 9 9 10 10 10 10 10 10 10 10 10 10 10 10 10 10 10
23 23 24 24 25 25 24 24 25 24 24 23 23 23 20 18 17 16 14 12 11 10 9 9 8 8 8 8 9 9 9 9 9 9 9 9 9 9 9 9 9 9 9 9
23 23 24 24 24 24 25 25 24 23 22 22 23 23 23 19 17 15 14 12 11 9 9 8 8 8 8 8 8 8 8 8 8 8 8 8 8 8 8 8 8 8 8 9
23 22 23 23 23 24 23 23 23 24 23 22 21 22 22 21 19 16 14 12 10 9 8 8 8 8 7 7 8 8 8 8 8 8 7 7 7 7 7 8 8 8 8 8
22 22 22 23 23 24 24 24 23 22 22 22 22 22 19 20 19 16 13 11 9 9 8 8 7 7 7 7 7 7 7 7 7 7 7 7 7 7 7 7 7 7 7 7
21 21 21 22 22 23 23 23 23 23 22 22 22 21 18 18 17 15 12 10 9 8 8 7 7 7 7 7 6 6 6 6 6 6 6 6 6 6 6 6 6 6 6 6
20 21 21 21 22 23 22 23 23 23 22 22 22 22 19 17 15 13 11 9 8 8 7 7 7 7 6 6 6 6 6 6 6 6 6 6 6 6 6 6 6 6 6 6
20 21 22 22 22 23 22 22 23 22 22 22 22 22 20 17 15 12 10 9 8 7 7 7 6 6 6 6 6 6 6 6 6 6 6 5 5 5 5 5 5 5 5 6
20 20 21 21 22 22 22 22 22 22 22 22 22 20 19 16 14 11 10 8 8 7 7 7 6 6 6 6 6 6 6 6 6 5 5 5 5 5 5 5 5 5 5 5
20 20 20 21 22 22 21 21 22 22 22 21 21 19 17 15 13 11 10 9 8 7 7 7 6 6 6 6 6 6 5 5 5 5 5 5 5 5 5 5 5 5 5 5
18 19 20 20 21 20 20 21 21 21 20 20 19 18 16 14 12 11 10 9 8 7 7 7 6 6 6 6 6 6 5 5 5 5 5 5 5 5 5 5 5 5 5 5
18 18 19 20 20 20 20 20 20 20 19 18 18 16 14 12 11 10 9 9 8 8 7 7 7 6 6 6 6 6 5 5 5 5 5 5 5 5 5 5 5 5 5 5
18 18 19 19 19 19 19 20 19 19 18 17 16 15 13 12 14 11 9 8 8 7 7 7 6 6 6 6 6 6 6 6 5 5 5 5 5 5 5 5 5 5 5 5
18 18 19 19 19 19 18 18 19 18 17 16 15 14 13 14 14 10 8 8 7 7 7 6 6 6 6 6 6 6 6 6 5 5 5 5 5 5 5 5 5 5 5 5
18 19 19 19 19 18 17 18 17 16 15 15 14 13 13 11 10 9 8 7 7 7 6 6 6 6 6 6 6 6 6 6 5 5 5 5 5 5 5 5 5 5 5 5
17 17 18 18 18 16 15 15 14 14 14 14 13 12 11 10 9 8 8 7 7 7 6 6 6 6 6 6 6 6 6 6 5 5 5 5 5 5 5 5 5 5 5 6
17 17 17 17 17 16 15 14 14 14 14 13 12 11 11 10 9 8 7 7 7 7 6 6 6 6 6 6 6 6 6 6 6 6 5 5 5 5 5 5 6 6 6 6
16 17 17 17 17 16 14 14 13 13 13 12 11 11 10 9 8 8 7 7 7 6 6 6 6 6 6 6 6 6 6 6 6 6 6 6 6 6 5 5 5 5 5 5
16 16 16 16 15 15 14 13 13 12 12 11 11 10 10 9 8 8 7 7 7 7 6 6 6 6 6 6 6 6 6 6 6 6 6 6 6 6 6 6 6 6 6 6
Wind_Speed
8 10 9 7 6 2 5 6 7 5 4 5 7 8 8 8 7 7 6 6 6 7 7 8 8 8 8 9 8 6 6 5 3 1 0 0 1 1 1 2 2 2 2 2
9 10 6 5 5 5 7 7 7 7 5 4 7 6 7 7 7 6 6 6 5 6 6 7 8 9 10 10 9 8 7 5 4 2 1 1 1 1 2 2 3 4 3 3
9 6 6 7 8 8 8 7 6 6 6 6 7 7 9 7 6 6 6 5 5 5 5 6 8 9 10 10 9 8 7 6 5 3 1 2 1 1 1 2 3 5 5 4
7 6 7 8 8 8 7 5 5 7 8 6 8 6 9 10 9 8 7 6 5 5 6 6 8 8 9 9 8 8 8 7 6 4 2 1 1 1 2 3 3 5 6 6
8 8 9 8 6 7 3 4 6 7 8 6 8 8 6 10 9 9 8 7 6 6 6 7 8 8 9 8 8 8 8 9 8 6 5 4 4 3 3 4 5 5 6 7
5 6 6 5 4 5 5 6 6 8 9 9 6 7 4 6 7 8 10 8 7 7 7 8 8 8 8 8 8 8 9 10 10 9 8 6 6 6 6 6 5 5 5 6
8 8 6 5 7 7 8 8 6 7 8 6 4 6 0 5 3 5 10 10 8 8 7 7 7 8 8 9 9 9 10 10 10 10 9 8 7 7 7 6 6 5 5 6
9 10 8 7 6 5 8 9 7 5 5 3 5 4 3 6 4 5 9 11 10 8 8 8 8 8 8 8 9 9 10 10 10 10 10 9 9 7 7 7 7 6 6 7
6 6 7 5 4 5 7 8 5 7 7 6 4 3 5 6 6 8 11 11 11 9 9 9 8 8 8 8 8 9 9 10 10 10 10 10 9 9 8 8 7 7 7 7
3 4 6 5 6 3 4 4 4 6 6 6 5 5 3 11 11 11 11 11 11 10 10 9 8 8 7 7 8 9 9 10 10 9 9 8 9 9 9 9 10 10 9 9
3 5 6 7 6 5 5 6 6 6 6 7 6 2 4 3 9 13 13 12 12 11 10 9 8 8 8 8 8 8 9 9 9 9 9 9 9 9 10 10 10 9 9 10
2 3 5 5 1 2 5 5 6 7 6 7 8 1 6 3 6 12 13 13 12 11 10 10 9 8 8 8 8 8 8 8 9 9 9 9 9 10 10 11 10 10 10 10
1 3 5 6 6 5 5 5 6 7 7 8 9 2 5 5 8 12 14 14 13 12 11 10 9 8 8 8 7 8 8 8 8 9 9 10 10 10 10 10 10 10 10 10
3 4 5 5 2 3 4 5 6 8 8 8 8 5 3 7 10 12 14 14 13 12 11 11 9 8 8 7 7 8 8 8 8 9 9 10 10 10 10 10 10 10 10 11
3 4 4 4 3 4 6 6 7 8 8 9 8 6 1 8 11 14 15 15 14 13 11 11 10 9 9 8 8 8 8 8 8 9 10 9 9 9 9 10 10 10 10 11
3 3 4 5 4 5 6 5 5 6 6 7 7 3 5 10 12 14 15 15 14 13 12 12 11 10 9 9 8 8 8 8 8 9 9 9 9 9 9 9 10 10 10 10
2 3 5 5 4 6 5 1 3 3 3 5 5 1 9 11 13 14 15 15 15 14 14 13 12 11 10 9 8 8 8 8 8 8 8 8 8 9 9 9 10 10 10 10
4 4 4 4 5 5 2 3 3 3 3 4 3 5 8 10 11 11 14 15 15 15 14 13 12 12 10 9 8 8 8 8 8 8 8 8 8 9 9 9 10 9 9 9
5 4 4 4 5 2 4 4 4 4 2 5 5 9 11 13 11 8 10 13 14 14 13 12 12 12 11 10 9 9 9 8 9 9 8 8 9 9 9 9 9 8 8 8
5 5 5 5 5 1 4 6 5 4 1 5 5 10 13 13 7 8 12 14 14 14 13 13 12 12 11 10 9 9 9 9 9 9 8 8 8 8 8 8 8 8 7 8
3 4 5 5 4 2 7 7 5 3 4 3 4 9 11 6 4 14 16 15 15 15 14 14 13 11 10 10 10 9 9 9 9 9 9 8 8 8 8 7 7 7 7 8
2 1 1 3 2 2 8 5 5 5 3 3 6 8 8 10 15 17 17 17 17 15 15 14 12 11 10 10 10 10 9 8 8 8 8 8 7 7 8 7 7 6 7 7
3 4 4 3 4 5 6 5 4 3 2 4 7 10 12 14 16 17 17 17 16 16 15 13 13 12 11 10 9 10 9 8 8 8 8 8 7 6 6 6 6 6 5 5
1 2 3 2 4 4 5 5 5 3 3 6 9 12 13 15 18 18 17 16 16 15 14 13 13 12 11 10 9 9 9 8 8 8 8 7 7 6 6 4 4 4 5 5
4 4 3 1 2 2 4 5 5 5 7 9 11 12 14 17 18 17 16 16 15 14 13 12 12 12 12 11 10 9 9 8 8 8 7 7 6 6 6 6 6 5 7 6
2 3 4 3 4 4 3 3 4 6 8 10 12 13 14 15 17 17 15 15 14 14 13 12 12 13 13 12 11 10 9 8 8 7 7 6 6 5 6 7 7 8 7 6
Wind_Direction
188 207 202 189 210 215 190 193 175 143 140 178 167 152 151 156 167 158 151 141 123 98 79 61 51 46 45 41 39 39 38 36 39 49 32 161 89 69 59 56 31 2 340 320
193 203 182 171 185 204 202 202 174 143 139 175 161 158 157 165 174 167 160 149 128 106 83 64 55 48 43 37 31 32 30 31 33 38 25 26 46 65 47 45 43 20 2 343
202 159 164 189 193 206 210 213 186 163 155 173 177 184 176 170 172 163 158 145 124 106 88 70 58 50 44 36 29 26 25 24 27 33 77 110 111 111 65 36 34 24 15 8
201 166 188 202 200 213 202 200 201 188 202 193 212 231 175 176 181 180 166 152 130 111 93 77 63 51 44 36 33 32 29 30 27 28 50 86 104 81 41 37 37 29 25 22
181 180 196 204 195 215 182 169 202 214 230 230 211 250 173 173 193 190 177 162 140 118 98 81 68 57 49 41 40 39 39 39 36 41 51 69 74 71 64 60 55 43 38 34
182 187 208 199 181 193 164 178 194 220 229 234 220 247 212 178 204 186 172 164 145 122 104 87 76 66 56 48 47 47 48 45 44 48 52 61 73 75 73 64 56 51 47 40
182 185 184 192 181 179 203 213 215 217 222 226 177 248 160 118 134 168 165 156 142 128 113 97 82 71 61 53 50 52 55 51 49 54 55 55 63 68 66 63 58 54 51 46
189 182 179 192 215 204 212 234 247 249 243 230 194 233 111 114 114 131 142 140 133 125 112 97 83 73 66 61 57 58 61 60 55 58 59 56 56 62 63 60 62 59 53 50
202 173 155 179 210 232 212 232 279 271 265 263 226 177 147 146 146 143 139 140 137 126 113 103 93 82 73 66 61 63 67 68 63 62 64 63 61 63 65 66 65 63 60 60
215 193 173 170 187 193 259 226 237 254 262 266 248 236 212 179 179 166 157 152 141 130 120 112 102 92 84 79 74 70 70 72 71 69 68 69 66 66 66 67 65 65 64 64
221 213 188 193 216 208 197 212 243 263 275 277 278 281 56 149 176 174 166 155 144 139 130 119 109 102 97 90 86 83 78 75 75 75 76 75 72 71 71 69 67 66 67 66
214 235 212 196 165 272 246 246 241 258 262 265 280 314 75 92 155 161 155 146 142 137 131 123 117 114 106 98 91 86 82 81 80 79 78 78 77 73 72 70 69 69 68 68
216 222 214 195 187 197 223 232 248 260 268 266 272 289 102 118 135 146 147 143 141 138 134 128 122 116 109 103 99 95 91 87 86 86 85 81 78 76 74 72 70 71 71 70
266 241 252 254 250 230 237 238 241 251 263 273 280 303 146 144 143 144 145 145 143 142 139 134 129 123 117 112 106 102 98 97 95 91 87 82 79 77 75 73 71 70 72 74
291 246 254 273 275 259 258 258 248 254 275 285 298 309 339 159 157 151 149 147 146 146 145 140 133 129 124 119 113 108 106 103 101 97 92 88 85 82 80 76 74 73 74 76
323 264 253 247 244 252 255 262 258 261 278 285 290 321 89 131 141 148 153 154 153 153 149 143 138 134 132 127 121 116 111 108 104 100 97 93 90 87 83 79 77 75 73 73
272 259 263 259 255 250 231 292 301 296 313 304 306 78 133 142 153 159 160 161 158 155 152 149 146 141 135 131 128 123 117 114 108 104 100 97 94 92 90 87 83 80 77 76
264 264 261 266 257 242 81 40 344 327 18 11 48 114 139 141 145 152 160 159 154 154 153 150 146 138 136 135 130 124 120 117 109 106 102 99 97 93 91 87 84 84 83 80
227 253 260 260 255 221 111 46 354 323 40 48 88 117 122 124 123 133 151 153 152 150 147 145 142 139 140 138 132 126 123 120 116 112 107 104 103 100 97 91 88 87 87 85
184 232 252 255 269 269 64 16 341 289 142 66 114 138 145 157 162 154 152 145 140 140 142 141 142 142 143 141 140 135 130 122 116 112 110 107 105 103 100 96 94 93 92 91
184 207 236 253 261 83 33 348 306 298 28 61 139 153 163 173 107 134 142 141 139 140 142 143 143 144 144 144 143 137 129 121 117 116 114 112 108 109 107 104 102 104 100 93
326 278 240 265 264 67 16 4 19 17 19 110 140 149 144 117 117 132 138 139 141 142 145 145 144 142 144 147 145 134 124 120 121 120 118 115 113 110 109 109 108 107 111 112
358 0 343 352 28 44 27 23 18 359 74 125 141 142 135 132 134 137 138 141 144 146 146 147 146 143 145 149 144 133 128 127 124 120 118 116 111 104 107 111 115 119 120 112
33 354 308 322 67 48 46 45 38 45 86 123 138 141 142 140 140 140 141 144 146 147 148 150 149 147 147 146 141 133 131 130 128 124 120 121 117 112 102 101 99 96 95 97
321 313 302 299 43 60 66 45 50 75 103 123 132 138 142 142 144 144 145 146 148 149 150 152 151 149 147 146 143 138 135 135 130 125 125 125 119 109 105 87 60 60 64 48
305 321 327 2 12 345 31 49 78 109 123 131 135 136 141 146 145 145 145 147 149 150 152 152 151 149 148 148 143 140 142 140 137 135 135 130 126 123 123 120 107 60 61 69
Height
1505 1502 1498 1496 1497 1495 1496 1497 1500 1502 1504 1505 1507 1511 1518 1523 1525 1527 1530 1532 1534 1536 1537 1537 1537 1537 1537 1537 1537 1538 1538 1539 1539 1540 1541 1541 1542 1542 1542 1542 1542 1542 1542 1542
1503 1498 1496 1498 1500 1500 1498 1499 1499 1503 1506 1506 1509 1513 1517 1522 1525 1528 1530 1533 1535 1536 1537 1538 1538 1537 1537 1537 1537 1537 1538 1538 1538 1539 1539 1540 1540 1540 1540 1540 1540 1539 1539 1539
1495 1495 1498 1500 1500 1500 1498 1497 1497 1502 1505 1505 1509 1514 1515 1521 1525 1528 1531 1533 1535 1536 1537 1538 1538 1537 1537 1537 1537 1537 1537 1537 1537 1537 1538 1538 1538 1538 1539 1538 1537 1537 1537 1536
1493 1495 1498 1498 1497 1497 1498 1495 1497 1500 1503 1502 1505 1508 1509 1514 1521 1526 1529 1532 1534 1536 1537 1538 1538 1538 1537 1537 1537 1536 1536 1536 1536 1536 1537 1537 1537 1537 1537 1536 1536 1535 1535 1535
1493 1494 1496 1496 1495 1496 1494 1496 1497 1497 1498 1500 1501 1505 1502 1509 1515 1521 1527 1531 1534 1536 1537 1538 1538 1538 1538 1537 1537 1536 1536 1535 1535 1535 1535 1535 1535 1535 1535 1535 1535 1534 1534 1533
1490 1493 1493 1492 1494 1496 1497 1497 1497 1496 1494 1506 1498 1503 1502 1503 1508 1515 1524 1530 1533 1535 1537 1538 1538 1538 1538 1538 1537 1536 1536 1535 1535 1535 1535 1535 1534 1534 1534 1534 1534 1534 1533 1532
1492 1491 1492 1493 1494 1496 1495 1498 1504 1506 1504 1502 1495 1501 1502 1504 1509 1514 1521 1528 1532 1535 1537 1538 1538 1539 1539 1538 1537 1537 1536 1536 1535 1535 1535 1535 1534 1534 1534 1534 1534 1534 1533 1532
1493 1493 1489 1490 1490 1491 1492 1493 1503 1511 1507 1498 1497 1500 1502 1509 1515 1518 1522 1528 1532 1535 1537 1538 1539 1539 1539 1539 1538 1538 1537 1536 1536 1536 1536 1535 1535 1535 1534 1534 1534 1534 1533 1532
1488 1490 1488 1490 1490 1489 1490 1489 1486 1493 1494 1499 1495 1498 1507 1513 1517 1520 1524 1529 1533 1535 1537 1538 1539 1540 1540 1540 1539 1539 1539 1538 1537 1537 1537 1536 1536 1536 1536 1535 1535 1534 1534 1534
1487 1492 1488 1489 1490 1491 1487 1487 1493 1495 1505 1506 1498 1495 1494 1506 1513 1519 1525 1529 1533 1535 1537 1539 1540 1541 1541 1541 1541 1541 1540 1539 1539 1539 1538 1538 1538 1538 1537 1537 1536 1536 1536 1536
1488 1492 1490 1489 1489 1488 1492 1492 1491 1490 1493 1502 1506 1499 1492 1497 1505 1514 1522 1527 1532 1535 1538 1540 1541 1542 1543 1543 1543 1542 1542 1542 1541 1541 1541 1540 1540 1540 1540 1539 1539 1539 1538 1538
1491 1490 1491 1488 1488 1488 1487 1488 1490 1498 1498 1494 1497 1500 1500 1501 1505 1513 1521 1527 1532 1535 1538 1540 1542 1543 1544 1544 1545 1544 1544 1544 1544 1544 1543 1543 1543 1542 1542 1542 1542 1542 1541 1541
1493 1494 1498 1496 1495 1491 1489 1488 1488 1489 1491 1495 1498 1500 1504 1504 1508 1515 1521 1527 1532 1536 1539 1541 1543 1545 1546 1546 1546 1547 1547 1547 1547 1547 1546 1546 1546 1546 1545 1545 1545 1545 1545 1545
1496 1493 1494 1498 1493 1488 1490 1488 1487 1489 1491 1492 1490 1491 1499 1504 1511 1518 1523 1528 1532 1536 1539 1541 1543 1545 1547 1548 1548 1549 1549 1550 1550 1549 1549 1549 1549 1549 1549 1549 1549 1549 1549 1548
1496 1493 1490 1488 1486 1486 1487 1487 1486 1487 1487 1490 1488 1488 1493 1503 1510 1518 1523 1528 1532 1536 1539 1542 1544 1546 1548 1549 1550 1551 1552 1552 1552 1552 1552 1552 1552 1552 1552 1552 1552 1552 1552 1553
1497 1495 1492 1490 1486 1485 1487 1485 1484 1485 1485 1485 1486 1491 1497 1505 1512 1519 1524 1528 1532 1536 1540 1543 1545 1547 1549 1551 1552 1553 1554 1554 1555 1555 1555 1556 1556 1556 1556 1556 1556 1556 1556 1556
1496 1497 1495 1491 1486 1487 1490 1487 1486 1486 1485 1487 1489 1495 1502 1508 1513 1518 1523 1528 1532 1536 1540 1543 1546 1548 1550 1552 1553 1555 1556 1557 1557 1558 1558 1559 1559 1559 1559 1559 1559 1559 1560 1560
1501 1497 1494 1491 1491 1498 1493 1488 1488 1488 1490 1490 1493 1498 1504 1510 1515 1520 1524 1527 1532 1536 1540 1544 1546 1549 1551 1554 1555 1557 1558 1559 1560 1560 1561 1561 1562 1562 1562 1562 1562 1563 1563 1563
1501 1499 1495 1493 1491 1490 1490 1490 1490 1491 1493 1496 1498 1503 1509 1513 1518 1523 1526 1528 1532 1536 1540 1544 1547 1550 1553 1555 1557 1559 1560 1561 1562 1563 1563 1564 1565 1565 1565 1565 1566 1566 1567 1567
1499 1498 1495 1493 1496 1497 1497 1493 1493 1494 1496 1501 1502 1506 1510 1513 1513 1521 1526 1529 1533 1538 1541 1545 1548 1552 1554 1557 1559 1560 1562 1563 1564 1565 1566 1567 1567 1568 1568 1568 1569 1569 1570 1570
1496 1496 1495 1493 1493 1491 1497 1495 1493 1497 1503 1504 1505 1507 1510 1511 1512 1519 1525 1530 1534 1539 1543 1546 1550 1553 1556 1558 1560 1562 1564 1565 1567 1568 1568 1569 1570 1570 1571 1571 1571 1572 1573 1573
1497 1495 1495 1493 1495 1500 1501 1496 1499 1505 1504 1505 1507 1509 1512 1514 1516 1521 1526 1531 1536 1540 1544 1548 1551 1555 1558 1560 1562 1564 1566 1567 1569 1570 1571 1571 1572 1573 1574 1573 1574 1575 1575 1575
1499 1501 1498 1499 1501 1504 1504 1504 1506 1506 1505 1506 1508 1511 1514 1516 1520 1524 1529 1533 1538 1542 1546 1550 1553 1556 1559 1562 1564 1566 1568 1569 1570 1572 1573 1573 1574 1575 1576 1576 1577 1577 1578 1578
1501 1504 1501 1499 1500 1504 1506 1506 1506 1506 1507 1508 1510 1512 1515 1518 1522 1526 1531 1535 1540 1544 1548 1551 1555 1558 1561 1563 1566 1568 1569 1571 1572 1574 1575 1575 1576 1577 1578 1579 1579 1580 1580 1580
1506 1504 1501 1501 1503 1505 1506 1507 1507 1507 1508 1510 1512 1515 1517 1520 1524 1528 1533 1537 1541 1545 1549 1553 1556 1559 1562 1565 1567 1569 1571 1573 1574 1575 1576 1578 1579 1579 1580 1580 1580 1581 1581 1581
1506 1505 1504 1503 1506 1506 1508 1509 1509 1509 1511 1512 1514 1517 1520 1523 1526 1531 1535 1539 1543 1547 1551 1554 1557 1560 1563 1566 1569 1571 1572 1574 1576 1577 1578 1579 1580 1581 1582 1582 1582 1582 1582 1582